Location: The Saddle
(36.8333°N, 80.3417°W)
Time: 20:52:51
(UTC-05:00)

ISS - Visible Passes

Search period start: 05 December 2021 00:00
Search period end: 15 December 2021 00:00
Orbit: 417 x 422 km, 51.6° (Epoch: 05 December)

Date Brightness Start Highest point End Pass type
(mag) Time Alt. Az. Time Alt. Az. Time Alt. Az.
05 Dec -2.2 19:03:13 10° NW 19:05:06 30° NW 19:05:06 30° NW visible
06 Dec -3.5 18:15:55 10° NW 18:19:12 47° NE 18:20:29 30° E visible
07 Dec -2.7 17:28:43 10° NNW 17:31:44 29° NNE 17:34:43 10° E visible
07 Dec -1.8 19:05:34 10° WNW 19:08:29 27° SW 19:09:18 24° SSW visible
08 Dec -2.9 18:17:53 10° WNW 18:21:11 50° SW 18:24:27 10° SSE visible
09 Dec -3.8 17:30:25 10° NW 17:33:49 85° NE 17:37:11 10° SE visible
10 Dec -0.5 18:20:50 10° W 18:22:53 15° SW 18:24:56 10° SSW visible
11 Dec -1.2 17:32:42 10° WNW 17:35:37 27° SW 17:38:31 10° S visible
